Regional Weather Roundup
Issued by NWS Boston, MA

Home | Current Version | Previous Version | Text Only | Print | Product List | Glossary On
Versions: 1 2 3 4 5 6 7 8 9 10 11 12 13 14 15 16 17 18 19 20 21 22 23 24 25 26 27
000
ASUS41 KBOX 291510
RWRBOX

REGIONAL WEATHER ROUNDUP
NATIONAL WEATHER SERVICE TAUNTON MA
1100 AM EDT THU SEP 29 2016

NOTE:  "FAIR" INDICATES FEW OR NO CLOUDS BELOW 12,000 FEET WITH NO
SIGNIFICANT WEATHER AND/OR OBSTRUCTIONS TO VISIBILITY.

MAZALL-291600-
EASTERN MASSACHUSETTS

CITY           SKY/WX    TMP DP  RH WIND       PRES   REMARKS
BOSTON         CLOUDY    57  50  77 NE16G25   30.48S
BEVERLY        CLOUDY    57  48  72 NE13G23   30.48R
LAWRENCE       MOSUNNY   57  47  69 NE16G26   30.52R
BEDFORD        CLOUDY    55  45  68 NE10      30.48S
BLUE HILL        N/A     54  47  77 NE16G30   30.44F
NORWOOD        CLOUDY    58  48  69 NE10G23   30.46S
MARSHFIELD     CLOUDY    59  50  72 NE13G23   30.46S
PLYMOUTH       CLOUDY    57  50  77 NE16G26   30.44S
TAUNTON        CLOUDY    58  49  72 NE6G20    30.44S
NEW BEDFORD    CLOUDY    59  50  72 NE18G28   30.42R
$$

MAZALL-291600-
CAPE COD AND THE ISLANDS

CITY           SKY/WX    TMP DP  RH WIND       PRES   REMARKS
FALMOUTH       CLOUDY    57  52  82 NE17G30   30.43S
HYANNIS        CLOUDY    59  52  77 NE20G29   30.40S
CHATHAM        CLOUDY    59  52  77 NE18G31   30.43R
PROVINCETOWN   CLOUDY    58  52  80 NE18G24   30.46R
NANTUCKET      CLOUDY    60  53  77 NE24G32   30.39S
MARTHAS VNYRD  CLOUDY    60  54  80 NE16G30   30.40S
$$

MAZALL-291600-
CENTRAL AND WESTERN MASSACHUSETTS

CITY           SKY/WX    TMP DP  RH WIND       PRES   REMARKS
WORCESTER      CLOUDY    51  43  74 NE13G22   30.47S
FITCHBURG      MOSUNNY   59  43  55 NE8       30.50S
ORANGE         SUNNY     57  44  62 E14G25    30.48S
SPRINGFIELD    MOSUNNY   61  42  49 E13G24    30.45R
WESTFIELD      SUNNY     61  43  51 NE10G20   30.46S
NORTH ADAMS    SUNNY     58  42  55 E15G28    30.44S
PITTSFIELD     MOSUNNY   56  42  59 NE13G23   30.42S
$$

RIZALL-291600-
RHODE ISLAND

CITY           SKY/WX    TMP DP  RH WIND       PRES   REMARKS
PROVIDENCE     PTSUNNY   60  48  64 NE23G29   30.44S
NEWPORT        CLOUDY    59  51  75 NE17      30.42S
BLOCK ISLAND   CLOUDY    59  53  80 NE16G29   30.39S
SMITHFIELD     CLOUDY    57  48  72 E14       30.45S
WESTERLY       CLOUDY    60  48  64 NE18G29   30.42R
$$

CTZALL-291600-
CONNECTICUT

CITY           SKY/WX    TMP DP  RH WIND       PRES   REMARKS
BRADLEY INTL   PTSUNNY   62  44  51 NE20      30.44F
HARTFORD       SUNNY     62  46  55 NE16      30.42F
BRIDGEPORT     CLOUDY    62  49  62 NE17      30.38R
DANBURY        CLOUDY    58  48  69 NE12G20   30.40R
GROTON         MOSUNNY   64  50  60 NE17G26   30.40R
NEW HAVEN      CLOUDY    63  48  58 NE14      30.39R
CHESTER        FAIR      63  48  59 NE15      30.40R
MERIDEN        MOSUNNY   65  48  54 NE15G23   30.41S
WILLIMANTIC    PTSUNNY   61  48  62 NE17      30.43F
OXFORD         PTSUNNY   57  45  62 E9G21     30.41R
$$

MEZ002-015-021-024-NHZ003-005-008-011-012-014-VTZ005-008-291600-
NORTHERN NEW ENGLAND

CITY           SKY/WX    TMP DP  RH WIND       PRES   REMARKS
PORTLAND ME    MOSUNNY   58  39  49 N14       30.54R
BANGOR ME      MOSUNNY   54  40  59 NE13      30.55S
CONCORD NH     SUNNY     60  40  47 NE13G23   30.52S
MANCHESTER NH  MOSUNNY   59  41  51 NE14G21   30.49F
NASHUA NH      MOSUNNY   57  45  64 NE9       30.51S
PORTSMOUTH NH  MOSUNNY   59  43  55 NE16G26   30.50S
JAFFREY NH     SUNNY     55  41  59 MISG      30.49S
KEENE NH       SUNNY     57  42  57 VRB7      30.50S
BURLINGTON VT  MOSUNNY   62  45  53 SE7       30.49R
MT. WASHINGTON MOSUNNY   41  25  52 E14         N/A
$$

NYZ052-076-291600-
EASTERN NEW YORK

CITY           SKY/WX    TMP DP  RH WIND       PRES   REMARKS
ALBANY         MOSUNNY   63  45  51 NE9       30.44S
NEW YORK CITY  CLOUDY    64  54  69 E18G26    30.36R
$$

ANZALL-291600-
MARINE OBSERVATIONS

STATION/POSITION TIME  TEMP    WIND        PRES    VSBY  WAVE
                       AIR SEA DIR/SP/G                  HT/PER
                 (UTC) (F)     (DEG/KT/KT) (MB)    (MI)  (FT/S)
BOSTON BUOY      1450   57 62   40/ 21/ 23 1030.7S         9/ 8
BUZZARDS BAY     1400   59      40/ 29/ 32 1029.1R
NANTUCKET SOUND  1450   60 65   40/ 23/ 29 1028.6R         4/ 4
MASS BAY-STELLWA 1404   57 61   40/ 19/ 23 1031.3R  1 7/8  7/ 8
ISLE OF SHOALS   1400   53      30/ 23/ 25 1032.2R
S OF BLOCK IS    1355      67                N/A           8/ 6
$$

......................KEY.........................
  SKY/WX - SKY CONDITION/PRESENT WEATHER
  TMP    - TEMPERATURE IN FAHRENHEIT
  DWPT   - DEWPOINT IN FAHRENHEIT
  RH     - RELATIVE HUMIDITY IN PERCENT
  WIND   - DIRECTION AND SPEED IN MPH
  PRES   - MEAN SEA LEVEL PRESSURE IN INCHES OF HG
  WCI    - WIND CHILL INDEX
  VSB    - VISIBILITY IN MILES
  HX     - HEAT INDEX
  TC     - TEMPERATURE IN CELSIUS
  VRB    - VARIABLE WIND DIRECTION
  N/A    - NOT AVAILABLE




USA.gov is the U.S. government's official web portal to all federal, state and local government web resources and services.